This is the latest recevied weather packets stored in our database for station/object K7LDN-13. If no packets are shown the sender has not sent any weather packets the latest 1 day(s).
| Time | Temp. | Humidity | Pressure | Rain* | Wind** | Luminosity | Snow |
|---|---|---|---|---|---|---|---|
| 1777995295 | 10.56° C | 66% | 1013.2 hPa | 0 mm | 7.6 m/s, 150° | 95 W/m² | - |
| 1777994991 | 10° C | 67% | 1013.1 hPa | 0.51 mm | 4.47 m/s, 140° | 85 W/m² | - |
| 1777994689 | 10.56° C | 67% | 1013.3 hPa | 0.51 mm | 6.71 m/s, 129° | 61 W/m² | - |
| 1777994384 | 10.56° C | 63% | 1013.2 hPa | 0 mm | 4.02 m/s, 136° | 48 W/m² | - |
| 1777994079 | 11.11° C | 61% | 1013.1 hPa | 0 mm | 2.24 m/s, 137° | 45 W/m² | - |
| 1777993777 | 11.11° C | 60% | 1013.1 hPa | 0 mm | 3.58 m/s, 126° | 40 W/m² | - |
| 1777993474 | 11.11° C | 59% | 1012.8 hPa | 0 mm | 7.15 m/s, 145° | 40 W/m² | - |
| 1777993173 | 11.11° C | 59% | 1013 hPa | 0 mm | 7.6 m/s, 125° | 44 W/m² | - |
| 1777992872 | 11.11° C | 59% | 1013 hPa | 0 mm | 3.58 m/s, 118° | 46 W/m² | - |
| 1777992569 | 11.11° C | 59% | 1012.6 hPa | 0 mm | 4.02 m/s, 135° | 45 W/m² | - |
| 1777992267 | 11.11° C | 58% | 1012.8 hPa | 0 mm | 3.58 m/s, 150° | 43 W/m² | - |
| 1777991964 | 11.11° C | 58% | 1012.8 hPa | 0 mm | 3.13 m/s, 145° | 48 W/m² | - |
| 1777991662 | 11.11° C | 59% | 1012.7 hPa | 0 mm | 2.24 m/s, 166° | 48 W/m² | - |
| 1777991359 | 11.11° C | 57% | 1012.8 hPa | 0 mm | 3.58 m/s, 150° | 41 W/m² | - |
| 1777991056 | 11.11° C | 57% | 1012.7 hPa | 0 mm | 3.13 m/s, 149° | 39 W/m² | - |
| 1777990753 | 11.11° C | 57% | 1012.6 hPa | 0 mm | 6.71 m/s, 146° | 45 W/m² | - |
| 1777990451 | 11.11° C | 58% | 1012.4 hPa | 0 mm | 4.92 m/s, 116° | 47 W/m² | - |
| 1777990147 | 11.11° C | 58% | 1012.5 hPa | 0 mm | 5.81 m/s, 146° | 45 W/m² | - |
| 1777989844 | 11.67° C | 56% | 1012.4 hPa | 0 mm | 6.71 m/s, 137° | 37 W/m² | - |
| 1777989541 | 11.67° C | 55% | 1012.4 hPa | 0 mm | 3.13 m/s, 137° | 27 W/m² | - |
| 1777989237 | 11.67° C | 55% | 1012.3 hPa | 0 mm | 1.79 m/s, 120° | 21 W/m² | - |
| 1777988934 | 11.67° C | 55% | 1012.3 hPa | 0 mm | 4.92 m/s, 154° | 17 W/m² | - |
| 1777988630 | 12.22° C | 55% | 1012.3 hPa | 0 mm | 4.92 m/s, 174° | 13 W/m² | - |
| 1777988327 | 12.22° C | 54% | 1012 hPa | 0 mm | 7.6 m/s, 144° | 11 W/m² | - |
| 1777988024 | 12.22° C | 55% | 1011.9 hPa | 0 mm | 4.47 m/s, 140° | 10 W/m² | - |
* Rain latest hour (hover to see other rain measurements)
** Current wind speed in m/s (hover to see current wind gust speed)